Tiempo cada hora Cayo de Willy

Hoy, 17 Abril, Sábado

Tiempo Temperatura Precipitaciones Viento Presión Humedad
00:00 +24°C° 0 mm 1 mps 761 mmHg 93%
01:00 +24°C° 0 mm 1 mps 761 mmHg 94%
02:00 +23°C° 0 mm 1 mps 761 mmHg 94%
03:00 +23°C° 0 mm 1 mps 761 mmHg 94%
04:00 +23°C° 0 mm 1 mps 761 mmHg 94%
05:00 +25°C° 0 mm 1 mps 761 mmHg 89%
06:00 +26°C° 0 mm 1 mps 761 mmHg 84%
07:00 +27°C° 0 mm 1 mps 762 mmHg 79%
08:00 +29°C° 0 mm 1 mps 762 mmHg 70%
09:00 +31°C° 0 mm 2 mps 762 mmHg 61%
10:00 +34°C° 0 mm 2 mps 762 mmHg 52%
11:00 +35°C° 0 mm 2 mps 761 mmHg 51%
12:00 +35°C° 0 mm 3 mps 760 mmHg 49%
13:00 +36°C° 0 mm 3 mps 760 mmHg 48%
14:00 +35°C° 0.1 mm 3 mps 760 mmHg 51%
15:00 +34°C° 0.1 mm 3 mps 760 mmHg 53%
16:00 +34°C° 0.1 mm 3 mps 760 mmHg 56%
17:00 +31°C° 0.1 mm 3 mps 760 mmHg 62%
18:00 +29°C° 0.1 mm 3 mps 761 mmHg 69%
19:00 +27°C° 0.1 mm 2 mps 761 mmHg 76%
20:00 +27°C° 0 mm 2 mps 761 mmHg 81%
21:00 +26°C° 0 mm 2 mps 762 mmHg 86%
22:00 +25°C° 0 mm 2 mps 762 mmHg 92%
23:00 +25°C° 0 mm 2 mps 762 mmHg 93%

Mañana, 18 Abril, Domingo

Tiempo Temperatura Precipitaciones Viento Presión Humedad
00:00 +25°C° 0 mm 2 mps 761 mmHg 95%
01:00 +25°C° 0 mm 1 mps 761 mmHg 97%
02:00 +25°C° 0 mm 1 mps 761 mmHg 96%
03:00 +25°C° 0 mm 1 mps 761 mmHg 96%
04:00 +25°C° 0 mm 1 mps 761 mmHg 96%
05:00 +26°C° 0 mm 1 mps 761 mmHg 92%
06:00 +26°C° 0 mm 1 mps 762 mmHg 87%
07:00 +27°C° 0 mm 1 mps 762 mmHg 83%
08:00 +29°C° 0 mm 2 mps 762 mmHg 74%
09:00 +30°C° 0 mm 2 mps 762 mmHg 66%
10:00 +32°C° 0 mm 2 mps 763 mmHg 57%
11:00 +34°C° 0 mm 3 mps 762 mmHg 51%
12:00 +35°C° 0 mm 3 mps 761 mmHg 46%
13:00 +37°C° 0 mm 3 mps 760 mmHg 40%
14:00 +36°C° 0 mm 3 mps 760 mmHg 44%
15:00 +35°C° 0 mm 4 mps 760 mmHg 47%
16:00 +34°C° 0 mm 4 mps 760 mmHg 50%
17:00 +31°C° 0 mm 3 mps 760 mmHg 59%
18:00 +29°C° 0 mm 3 mps 761 mmHg 67%
19:00 +27°C° 0 mm 2 mps 762 mmHg 76%
20:00 +26°C° 0 mm 2 mps 762 mmHg 79%
21:00 +25°C° 0 mm 2 mps 762 mmHg 83%
22:00 +25°C° 0 mm 2 mps 763 mmHg 87%
23:00 +24°C° 0 mm 1 mps 763 mmHg 89%

Pasado mañana, 19 Abril, Lunes

Tiempo Temperatura Precipitaciones Viento Presión Humedad
00:00 +24°C° 0 mm 1 mps 762 mmHg 90%
01:00 +24°C° 0 mm 1 mps 762 mmHg 91%
02:00 +24°C° 0 mm 1 mps 762 mmHg 93%
03:00 +24°C° 0 mm 1 mps 762 mmHg 94%
04:00 +24°C° 0 mm 1 mps 762 mmHg 95%
05:00 +25°C° 0 mm 1 mps 763 mmHg 89%
06:00 +26°C° 0 mm 1 mps 763 mmHg 83%
07:00 +27°C° 0 mm 2 mps 764 mmHg 78%
08:00 +29°C° 0 mm 2 mps 763 mmHg 68%
09:00 +31°C° 0 mm 2 mps 763 mmHg 58%
10:00 +34°C° 0 mm 3 mps 763 mmHg 49%
11:00 +35°C° 0 mm 3 mps 763 mmHg 47%
12:00 +35°C° 0 mm 4 mps 762 mmHg 45%
13:00 +36°C° 0 mm 4 mps 761 mmHg 43%
14:00 +35°C° 0 mm 4 mps 761 mmHg 46%
15:00 +34°C° 0 mm 4 mps 761 mmHg 48%
16:00 +34°C° 0 mm 4 mps 761 mmHg 50%
17:00 +32°C° 0 mm 4 mps 761 mmHg 58%
18:00 +29°C° 0 mm 3 mps 762 mmHg 66%
19:00 +27°C° 0 mm 3 mps 762 mmHg 73%
20:00 +27°C° 0 mm 3 mps 763 mmHg 77%
21:00 +26°C° 0 mm 3 mps 763 mmHg 80%
22:00 +25°C° 0 mm 2 mps 763 mmHg 83%
23:00 +25°C° 0 mm 2 mps 763 mmHg 86%

20 Abril, Martes

Tiempo Temperatura Precipitaciones Viento Presión Humedad
00:00 +25°C° 0 mm 2 mps 763 mmHg 89%
01:00 +24°C° 0 mm 2 mps 763 mmHg 92%
02:00 +24°C° 0 mm 2 mps 763 mmHg 93%
03:00 +24°C° 0 mm 1 mps 763 mmHg 94%
04:00 +24°C° 0 mm 1 mps 763 mmHg 95%
05:00 +25°C° 0 mm 2 mps 763 mmHg 89%
06:00 +26°C° 0 mm 2 mps 763 mmHg 83%
07:00 +27°C° 0 mm 2 mps 764 mmHg 77%
08:00 +29°C° 0 mm 3 mps 764 mmHg 67%
09:00 +31°C° 0 mm 3 mps 764 mmHg 57%
10:00 +34°C° 0 mm 3 mps 764 mmHg 47%
11:00 +34°C° 0 mm 3 mps 763 mmHg 45%
12:00 +35°C° 0 mm 4 mps 762 mmHg 43%
13:00 +35°C° 0 mm 4 mps 762 mmHg 42%
14:00 +35°C° 0 mm 4 mps 762 mmHg 46%
15:00 +34°C° 0 mm 4 mps 761 mmHg 51%
16:00 +33°C° 0 mm 4 mps 761 mmHg 55%
17:00 +30°C° 0 mm 3 mps 762 mmHg 63%
18:00 +28°C° 0 mm 3 mps 762 mmHg 71%
19:00 +27°C° 0 mm 3 mps 763 mmHg 80%
20:00 +26°C° 0 mm 3 mps 763 mmHg 82%
21:00 +25°C° 0 mm 2 mps 763 mmHg 85%
22:00 +25°C° 0 mm 2 mps 763 mmHg 88%
23:00 +24°C° 0 mm 2 mps 763 mmHg 89%

21 Abril, Miércoles

Tiempo Temperatura Precipitaciones Viento Presión Humedad
00:00 +24°C° 0 mm 2 mps 763 mmHg 91%
01:00 +24°C° 0 mm 1 mps 762 mmHg 92%
02:00 +24°C° 0 mm 1 mps 762 mmHg 92%
03:00 +24°C° 0 mm 1 mps 762 mmHg 92%
04:00 +24°C° 0 mm 1 mps 762 mmHg 92%
05:00 +25°C° 0 mm 1 mps 763 mmHg 87%
06:00 +26°C° 0 mm 1 mps 763 mmHg 81%
07:00 +27°C° 0 mm 1 mps 763 mmHg 76%
08:00 +29°C° 0 mm 2 mps 763 mmHg 67%
09:00 +31°C° 0 mm 2 mps 763 mmHg 58%
10:00 +33°C° 0 mm 3 mps 763 mmHg 48%
11:00 +34°C° 0 mm 3 mps 763 mmHg 46%
12:00 +34°C° 0 mm 4 mps 762 mmHg 44%
13:00 +35°C° 0 mm 4 mps 761 mmHg 42%
14:00 +34°C° 0 mm 4 mps 761 mmHg 49%
15:00 +33°C° 0 mm 4 mps 761 mmHg 55%
16:00 +32°C° 0 mm 4 mps 761 mmHg 62%
17:00 +29°C° 0.1 mm 4 mps 761 mmHg 69%
18:00 +28°C° 0.1 mm 3 mps 762 mmHg 76%
19:00 +27°C° 0.1 mm 3 mps 762 mmHg 82%
20:00 +26°C° 0 mm 2 mps 762 mmHg 84%
21:00 +25°C° 0 mm 2 mps 763 mmHg 86%
22:00 +25°C° 0 mm 2 mps 763 mmHg 88%
23:00 +24°C° 0 mm 2 mps 763 mmHg 88%

22 Abril, Jueves

Tiempo Temperatura Precipitaciones Viento Presión Humedad
00:00 +24°C° 0 mm 1 mps 762 mmHg 88%
01:00 +24°C° 0 mm 1 mps 762 mmHg 89%
02:00 +24°C° 0 mm 1 mps 762 mmHg 90%
03:00 +24°C° 0 mm 1 mps 762 mmHg 91%
04:00 +23°C° 0 mm 1 mps 762 mmHg 92%
05:00 +24°C° 0 mm 1 mps 762 mmHg 88%
06:00 +26°C° 0 mm 1 mps 762 mmHg 84%
07:00 +27°C° 0 mm 1 mps 763 mmHg 80%
08:00 +29°C° 0 mm 2 mps 763 mmHg 69%
09:00 +31°C° 0 mm 2 mps 763 mmHg 57%
10:00 +34°C° 0 mm 3 mps 763 mmHg 46%
11:00 +34°C° 0 mm 3 mps 762 mmHg 47%
12:00 +34°C° 0 mm 4 mps 761 mmHg 48%
13:00 +34°C° 0 mm 4 mps 761 mmHg 49%
14:00 +33°C° 0.1 mm 4 mps 760 mmHg 55%
15:00 +31°C° 0.1 mm 3 mps 760 mmHg 60%
16:00 +30°C° 0.1 mm 3 mps 760 mmHg 66%
17:00 +29°C° 0.1 mm 3 mps 760 mmHg 70%
18:00 +28°C° 0.1 mm 2 mps 761 mmHg 75%
19:00 +27°C° 0.1 mm 2 mps 761 mmHg 79%
20:00 +26°C° 0 mm 2 mps 762 mmHg 83%
21:00 +25°C° 0 mm 2 mps 762 mmHg 86%
22:00 +25°C° 0 mm 1 mps 762 mmHg 90%
23:00 +25°C° 0.2 mm 1 mps 762 mmHg 91%
Mostrar más

Necesitamos Su Consentimiento

Meteoprog y nuestros Proveedores de Servicios pueden almacenar y acceder a sus datos personales como cookies, identificadores de dispositivo u otras tecnologías similares de su dispositivo y procesar dichos datos para personalizar contenido y anuncios, además de ofrecer funciones de redes sociales y analizar el tráfico.

  • Almacenar y/o acceder a información en su dispositivo

    Se puede almacenar o acceder a cookies, identificadores de dispositivo u otra información de su dispositivo para los fines anteriormente indicados.

  • Anuncios y contenido personalizados, medición de anuncios y contenido, percepciones del público, y desarrollo de productos

    Los anuncios y el contenido pueden personalizarse en base a su perfil. Se pueden añadir más datos para personalizar mejor los anuncios y contenidos. Se puede medir el rendimiento de los anuncios y contenidos. Se puede obtener la percepción sobre el público que ha visto los anuncios y contenidos. Dichos datos pueden usarse para desarrollar o mejorar la experiencia del usuario, sistemas y software.

Al hacer clic en ‘Estoy De Acuerdo’ usted permitirá el uso de las cookies, identificadores de dispositivo, balizas web u otras tecnologías similares indicadas. Su configuración puede cambiarse desde el navegador de su dispositivo.

Para ciertos fines, los intereses legítimos pueden ser considerados por encima del consentimiento. Puede leer más sobre ello en nuestra Política de Privacidad y Cookies.